Home > Weather > Wittenberge > Past weeks

Flag for Germany Weather for the Past 2 Weeks in Wittenberge, Mecklenburg-Western Pomerania, Germany

Now
34 °F

Rain. Passing clouds.


Feels Like: 21 °F
Forecast: 37 / 42 °F
Wind: 26 mph from West

Location: Fassberg

Current Time: Feb 10, 2016 at 12:13:19 AM

Latest Report: Feb 9, 2016 at 11:20 PM


Visibility: 1 mi

Pressure: 28.85 "Hg

Humidity: 93%

Dew point: 32 °F

Location of WittenbergeLocation

Historic Weather in Wittenberge — Graph

°F

Wittenberge Temperature Yesterday

Maximum temperature yesterday: 45 °F (at 12:01 AM)
Minimum temperature yesterday: 41 °F (at 12:20 PM)
Average temperature yesterday: 43 °F

High & Low Weather Summary for the Past Weeks

 TemperatureHumidityPressure
High55 °F (Feb 7, 1:20 PM)100% (Feb 1, 7:20 AM)30.21 "Hg (Feb 1, 7:20 AM)
Low34 °F (Jan 31, 3:20 AM)55% (Feb 7, 1:20 PM)28.77 "Hg (Feb 9, 9:20 PM)
Average44 °F82%29.79 "Hg
* Reported Jan 25 10:20 PM — Feb 9 10:20 PM, Wittenberge, Weather by CustomWeather, © 2016

Note: Actual official high and low records may vary slightly from our data, if they occured in-between our weather recording intervals... More about our weather records

Advertising

Wittenberge Weather History for the Previous 24 Hours

 ConditionsComfort  
Time TempWeatherWind HumidityBarometerVisibility
10:20 PM
Tue, Feb 9
41 °FPassing clouds.26 mph81%28.77 "HgN/A
9:20 PM45 °FPassing clouds.10 mph87%28.77 "HgN/A
8:20 PM45 °FPassing clouds.13 mph87%28.80 "HgN/A
7:20 PM43 °FPartly cloudy.13 mph93%28.82 "HgN/A
6:20 PM41 °FLight rain. Partly cloudy.15 mph93%28.88 "HgN/A
5:20 PM41 °FRain. Mostly cloudy.15 mph93%28.94 "Hg4 mi
4:20 PM43 °FLight rain. More clouds than sun.8 mph81%29.03 "HgN/A
3:20 PM45 °FBroken clouds.7 mph71%29.09 "HgN/A
2:20 PM45 °FPartly sunny.6 mph71%29.15 "HgN/A
1:20 PM43 °FBroken clouds.3 mph87%29.21 "HgN/A
12:20 PM41 °FPartly sunny.3 mph87%29.27 "HgN/A
10:20 AM43 °FDrizzle. Broken clouds.17 mph76%29.30 "Hg6 mi
9:20 AM45 °FPartly sunny.17 mph66%29.33 "HgN/A
8:20 AM43 °FScattered clouds.14 mph71%29.33 "HgN/A
7:20 AM43 °FPassing clouds.23 mph71%29.33 "HgN/A
6:20 AM45 °FPassing clouds.23 mph66%29.30 "HgN/A
5:20 AM45 °FPassing clouds.25 mph76%29.30 "HgN/A
4:20 AM43 °FLight rain. Overcast.28 mph87%29.27 "Hg5 mi
3:20 AM43 °FRain. Fog.25 mph87%29.24 "Hg3 mi
2:55 AM43 °FRain. Fog.22 mph87%29.24 "Hg3 mi
2:20 AM43 °FRain. Fog.18 mph93%29.24 "Hg3 mi
1:20 AM43 °FRain. Fog.23 mph87%29.24 "Hg3 mi
12:20 AM43 °FRain. Overcast.22 mph87%29.21 "Hg5 mi
12:01 AM45 °FRain. Overcast.22 mph76%29.21 "Hg5 mi
Weather by CustomWeather, © 2016

See weather overviewHow to use our weather pages